Flag for Canada Weather past 2 weeks in Abbotsford, British Columbia, Canada

Now
64 °F

Broken clouds.


Feels Like: 64 °F
Forecast: 54 / 67 °F
Wind: 12 mph from Southwest

Location: Abbotsford

Current Time: May 22, 2015 at 7:02:43 PM

Latest Report: May 22, 2015 at 6:00 PM


Visibility: 15 mi

Pressure: 29.97 "Hg

Humidity: 73%

Dew point: 55 °F

Location of AbbotsfordLocation

Historic Weather in Abbotsford — Graph

°F

Abbotsford temperature yesterday

Maximum temperature yesterday: 79 °F (at 3:00 PM)
Minimum temperature yesterday: 52 °F (at 5:00 AM)
Average temperature yesterday: 66 °F

Past Weeks' High & Low Weather Summary

 TemperatureHumidityPressure
High79 °F (May 21, 3:00 PM)100% (May 12, 6:00 AM)30.11 "Hg (May 12, 6:00 AM)
Low46 °F (May 8, 4:00 AM)18% (May 8, 4:00 PM)29.79 "Hg (May 21, 4:00 PM)
Average60 °F73%29.96 "Hg
* Reported May 7 6:00 PM — May 22 6:00 PM, Abbotsford, Weather by CustomWeather, © 2015

Note: Actual official high and low records may vary slightly from our data, if they occured in-between our weather recording intervals... More about our weather records

Advertising

Abbotsford weather history for previous 24 hours

 ConditionsComfort  
Time TempWeatherWind HumidityBarometerVisibility
6:00 PM
Fri, May 22
64 °FBroken clouds.12 mph73%29.97 "Hg15 mi
5:00 PM64 °FBroken clouds.14 mph73%29.98 "Hg15 mi
4:00 PM64 °FBroken clouds.17 mph73%29.97 "Hg15 mi
3:00 PM64 °FBroken clouds.15 mph68%29.96 "Hg20 mi
2:00 PM63 °FBroken clouds.18 mph73%29.97 "Hg20 mi
1:00 PM63 °FPartly sunny.20 mph73%29.97 "Hg20 mi
12:00 PM61 °FBroken clouds.14 mph77%29.96 "Hg20 mi
11:00 AM59 °FBroken clouds.13 mph82%29.95 "Hg20 mi
10:00 AM61 °FBroken clouds.10 mph77%29.95 "Hg30 mi
9:00 AM61 °FBroken clouds.10 mph77%29.94 "Hg30 mi
8:00 AM61 °FBroken clouds.7 mph77%29.93 "Hg30 mi
7:00 AM55 °FLight rain. Broken clouds.6 mph88%29.93 "Hg30 mi
6:53 AM55 °FLight rain. Broken clouds.7 mph88%29.92 "Hg30 mi
6:00 AM55 °FPassing clouds.6 mph82%29.91 "Hg30 mi
5:00 AM55 °FPassing clouds.3 mph82%29.90 "Hg30 mi
4:00 AM55 °FPartly cloudy.2 mph88%29.89 "Hg15 mi
3:00 AM55 °FPassing clouds.5 mph88%29.88 "Hg15 mi
2:00 AM57 °FPassing clouds.3 mph82%29.87 "Hg15 mi
1:00 AM57 °FPassing clouds.6 mph88%29.86 "Hg15 mi
12:00 AM59 °FPassing clouds.7 mph88%29.86 "Hg15 mi
11:00 PM
Thu, May 21
61 °FPassing clouds.5 mph83%29.85 "Hg15 mi
10:00 PM64 °FPartly cloudy.2 mph73%29.83 "Hg15 mi
9:00 PM66 °FBroken clouds.5 mph68%29.83 "Hg30 mi
8:00 PM68 °FMore clouds than sun.5 mph69%29.83 "Hg30 mi
7:00 PM72 °FBroken clouds.14 mph61%29.80 "Hg30 mi
Weather by CustomWeather, © 2015

See weather overviewHow to use our weather pages